Regional Weather Roundup
Issued by NWS Wakefield, VA

Home | Current Version | Previous Version | Text Only | Print | Product List | Glossary On
Versions: 1 2 3 4 5 6 7 8 9 10 11 12 13 14 15 16 17 18 19 20 21 22 23 24 25 26 27 28 29 30 31 32 33 34 35 36 37 38 39 40 41 42 43 44 45 46 47 48 49 50
000
ASUS41 KAKQ 281415
RWRAKQ

REGIONAL WEATHER ROUNDUP
NATIONAL WEATHER SERVICE WAKEFIELD VA
1000 AM EDT THU MAY 28 2015

Note: "fair" indicates few or no clouds below 12,000 feet with no
significant weather and/or obstructions to visibility. * = Denotes
station may not report precipitation (e.g., rain,snow,etc.),
thunder or fog.

VAZ042-051-052>054-056-281500-
NORTHERN VIRGINIA

CITY           SKY/WX    TMP DP  RH WIND       PRES   REMARKS
WASH NATIONAL  CLOUDY    79  70  74 S6        30.19F
DULLES         MOSUNNY   78  69  73 CALM      30.20S
FORT BELVOIR   MOSUNNY   79  69  70 VRB2      30.19F
QUANTICO       PTSUNNY   74  68  81 S6        30.20S
FREDERICKSBRG* SUNNY     79  70  72 CALM      30.19S
STAFFORD*      SUNNY     77  66  68 CALM      30.23F
WARRENTON      MOSUNNY   80  70  71 CALM      30.20S
CULPEPER*      SUNNY     78  68  71 CALM      30.20F
MANASSAS*      SUNNY     79  68  69 CALM      30.20S
LEESBURG*      SUNNY     79  70  73 SE3       30.21S
WINCHESTER     SUNNY     82  54  36 NW6       30.21S
FRONT ROYAL*   FAIR      77  68  73 CALM      30.20S
LURAY*         FAIR      81  68  65 CALM      30.22S
$$

VAZ048-049-060>072-079>083-281500-
CENTRAL AND SOUTH CENTRAL VIRGINIA

CITY           SKY/WX    TMP DP  RH WIND       PRES   REMARKS
RICHMOND       CLOUDY    80  69  69 W7        30.21R
CHESTERFIELD*  NOT AVBL
PETERSBURG*    PTSUNNY   80  75  85 SW9       30.22S
HANOVER        MOSUNNY   78  69  73 S7        30.22R
TAPPAHANNOCK*  PTSUNNY   78  66  66 S5        30.22R
QUINTON*       FAIR      76  70  80 S7        30.20S
CHARLOTTSVILLE SUNNY     80  65  59 CALM      30.20F
GORDONSVILLE*  FAIR      76  68  75 CALM      30.20S
ORANGE*        SUNNY     79  68  69 CALM      30.22S
LOUISA*        SUNNY     79  70  73 CALM      30.20S
BUMPASS*       FAIR      77  68  73 W3        30.20S
FARMVILLE*     MOSUNNY   78  68  71 S3        30.20S
CREWE*         FAIR      78  69  72 SW3       30.21F
FORT PICKETT*  FAIR      76  70  80 S7        30.22F
CHASE CITY*    FAIR      78  73  83 SW5       30.22F
CLARKSVILLE*   CLOUDY    72  68  88 SW5       30.23S
SOUTH HILL*    CLOUDY    74  69  86 S6        30.29S
LAWRENCEVILLE* CLOUDY    73  70  88 SW8       30.23S
EMPORIA*       CLOUDY    72  70  94 S6        30.25S
$$

VAZ088>098-281500-
SOUTHEAST VIRGINIA

CITY           SKY/WX    TMP DP  RH WIND       PRES   REMARKS
NORFOLK        PTSUNNY   80  66  62 SW14      30.22F
VIRGINIA BEACH PTSUNNY   81  68  64 S9        30.22F
NORFOLK NAVAL  PTSUNNY   80  67  64 S12G18    30.23F
WEST POINT*    CLOUDY    77  69  75 S6        30.23S
SALUDA*        CLOUDY    73  69  87 S5        30.21S
NEWPORT NEWS   PTSUNNY   81  68  64 SW13      30.22F
LANGLEY AFB    PTSUNNY   76  68  77 S14       30.21F
FORT EUSTIS    PTSUNNY   76  71  82 S9        30.21S
WILLIAMSBURG*  PTSUNNY   75  72  88 SW5       30.23S
HR EXEC AP*    FAIR      77  68  73 SW8       30.25F
FRANKLIN*      PTSUNNY   76  67  73 S9        30.23F
WAKEFIELD      CLOUDY    74  69  85 SW7       30.23S
$$

VAZ020-022-025-037-045-281500-
WEST CENTRAL AND SOUTHWEST VIRGINIA

CITY           SKY/WX    TMP DP  RH WIND       PRES   REMARKS
STAUNTON*      SUNNY     77  66  68 CALM      30.25F
WAYNESBORO*    FAIR      75  64  69 NW5       30.25S
HOT SPRINGS VA MOSUNNY   66  56  68 NW9       30.34S
LYNCHBURG      MOSUNNY   77  65  66 CALM      30.24S
DANVILLE       SUNNY     77  68  73 VRB3      30.22F
SOUTH BOSTON*  FAIR      76  68  76 SW3       30.22F
MARTINSVILLE   SUNNY     79  66  65 CALM      30.25F
ROANOKE        PTSUNNY   78  64  61 N3        30.25F
BLACKSBURG     MOSUNNY   72  64  76 CALM      30.32S
DUBLIN*        SUNNY     74  63  68 N3        30.30F
MARION*        MOSUNNY   74  62  66 SW5       30.33S
HILLSVILLE*    MOSUNNY   70  61  73 N3        30.31F
RICHLANDS*     PTSUNNY   70  62  74 CALM      30.31S
WISE*          PTSUNNY   73  57  56 CALM      30.33R
ABINGDON*      MOSUNNY   75  64  69 CALM      30.29F
$$

MDZ021>025-VAZ099-100-281500-
SOUTHERN MARYLAND AND THE DELMARVA PENINSULA

CITY           SKY/WX    TMP DP  RH WIND       PRES   REMARKS
PATUXENT RIVER CLOUDY    78  68  71 SW9       30.19F
BAY BRIDGE APT   N/A    N/A N/A N/A S7        30.19S
LEONARDTOWN    MOSUNNY   75  68  78 SW9       30.21S
DOVER          PTSUNNY   79  72  79 SW9       30.15F
GEORGETOWN     CLOUDY    76  69  79 SW9       30.20F
EASTON         PTSUNNY   77  72  83 W8        30.23S
CAMBRIDGE      PTSUNNY   77  70  78 S6        30.19F
SALISBURY      CLOUDY    76  70  82 SW7       30.20S
OCEAN CITY     PTSUNNY   72  66  81 SW9       30.21F
WALLOPS ISLAND PTSUNNY   72  67  84 S13       30.22F
ACCOMACK*      PTSUNNY   77  70  78 SW9       30.21F
$$

NCZ012>017-030>032-281500-
NORTH CENTRAL AND EASTERN NORTH CAROLINA

CITY           SKY/WX    TMP DP  RH WIND       PRES   REMARKS
ROANOKE RAPIDS CLOUDY    72  68  88 SW6       30.24S
RALEIGH        CLOUDY    73  68  83 NW3       30.25R
ELIZABETH CITY MOSUNNY   77  67  71 S13       30.25F
AHOSKIE*       PTSUNNY   75  67  77 CALM      30.24S
EDENTON*       CLOUDY    75  66  74 SW9       30.25F
CURRITUCK*     NOT AVBL
KILL DEVIL HLS CLOUDY    75  63  66 S6        30.26R
MANTEO         CLOUDY    74  63  68 S10       30.27R
CAPE HATTERAS  SUNNY     77  60  55 S8        30.27S
TARBORO*       CLOUDY    76  67  74 S7        30.25F
GOLDSBORO      PTSUNNY   76  66  70 S8        30.23F
WASHINGTON     SUNNY     76  64  67 SW6       30.26F
GREENVILLE     MOSUNNY   77  68  73 S9        30.26S
NEW BERN       SUNNY     79  64  60 CALM      30.27S
WILMINGTON     SUNNY     78  62  57 S7        30.25F
$$

VAZ048-281500-
ELSEWHERE

CITY           SKY/WX    TMP DP  RH WIND       PRES   REMARKS
HARRISBURG PA  MOSUNNY   78  67  68 NW5       30.17S
BALTIMORE      PTSUNNY   78  68  71 VRB5      30.18S
ANNAPOLIS      PTSUNNY   78  68  71 CALM      30.18S
ANDREWS AFB    LGT RAIN  79  68  69 VRB5      30.19S
PHILADELPHIA   PTSUNNY   77  69  76 SW9       30.17F
HENDERSON NC   CLOUDY    74  67  81 CALM      30.24S
GREENSBORO     MOSUNNY   77  68  73 VRB3      30.23F
ROCKY MOUNT    CLOUDY    75  70  84 S7        30.25S
$$

VAZ100-281500-
MARINE

STATION/POSITION TIME  TEMP    WIND        PRES    WAVE   SWELL
                       AIR SEA DIR/SP/G            HT/PER HT/PER
                 (UTC) (F)     (DEG/KT/KT) (MB)    (FT/S) (FT/S)
BRANDYWINE LGT   1300   70 66  210/  5/  6 1022.6R
CAPE MAY NJ      1300   67 70  160/ 10/ 12 1022.3R
LEWES DE         1300   76 62  230/  8/ 11 1022.3R
15NM E FENWICK I 1350   65 62              1022.8F   3/ 5
OCEAN-CITY-INLET 1300   62 59  210/ 12/ 15 1022.9R
WACHAPREAGUE VA  1300   72 74  210/ 12/ 15 1023.4R
THOMAS POINT MD  1400   71 70  170/  6/  6 1022.8R
GOOSES REEF MD   1400   72 70  170/  4/  4 1023.2F   1/ 2
COVE POINT MD    1300   73     240/  4/  6 1023.3R
SOLOMONS ISLAND  1300      72                N/A
BISHOPS HEAD MD  1300   72 73  190/  9/ 12 1022.6R
PINEY POINT MD   1300          290/  4/  5   N/A
CAMBRIDGE MD     1300   74 72  230/  5/  7 1022.4R
LEWISETTA VA     1300   73 74              1022.2R
RAPPAHANNOCK LGT 1300          180/ 15/ 16 1023.7R
STINGRAY PT      1400   74 73  220/  8/  8 1023.0R   1/ 2
YORK RVR RNG VA  1300   73     210/ 11/ 12 1022.6F
YORKTOWN VA      1300   74 72  210/  8/ 11 1022.9S
JAMESTOWN VA     1400   72 76  220/  8/ 10 1022.4R
DOMINION TERM VA 1300   72     200/ 11/ 12 1023.7F
KIPTOPEKE VA     1300      75  190/  6/  8   N/A
CHES BAY BRIDGE  1300   73 71  190/ 15/ 17 1023.2R
CAPE HENRY VA    1300   75     200/  9/ 13 1022.5R
CHESAPEAKE LGHT  1300   67     190/ 16/ 16 1024.5R
WILLOUBY STN VA  1300   72     210/ 13/ 15 1024.3S
CAPE HENRY BUOY  1328      60                N/A     3/ 7
1ST LANDING BUOY 1400      71              1023.2F
CAPE CHARLES BUO 1326      68                N/A     2/ 7   2/ 7
OFFSHORE WE BUOY 1311      65                N/A     3/ 7   2/ 7
64NM E OF VA BCH 1350   66 64  160/  8/  8 1024.5R   3/ 7   3/ 7
DUCK PIER NC     1300   73 54  190/ 11/ 12 1023.7R
44100 DUCK FRF   1324      64                N/A     3/ 7
44056 DUCK FRF   1311      61                N/A     2/ 7
OREGON INLET NC  1300   74 75  180/  9/ 10 1024.8R
HATTERAS NC      1300   76 75  150/  5/  7 1024.5R
DIAMOND SHLS NC  1350   75 77  160/  4/  8 1025.1F   2/ 8   2/ 8
CAPE LOOKOUT NC  1400   74     120/  6/  7 1024.6R
$$



USA.gov is the U.S. government's official web portal to all federal, state and local government web resources and services.